Hoosier Classic - Training 65 Miles - Hens First

Station: Brookston - T Race

Distance: 65 Miles

Release: 16-May-2018 08:55

Weather Release:    Arrival:

Wind at Release:     Wind at Arrival:

Temp at Release: °    Temp at Arrival: °

Lofts: 96

Birds: 325

Clocked: 291

Good Luck to Everyone!
Drops Pos Breeder Pigeon Name Color Sex Ent Arrival Speed To Win Eligible BronzeSilverGoldPlatinum
101 Andy Skwiat - IN 0788-AU17-GONZ BB H 14 10:42:47.90 1061.241 00:11:13 Yes
102 H & H Loft - TX 6912-AU17-VK BCH H 4 10:42:51.20 1060.700 00:11:16 Yes
103 Aztec Loft - DE 0267-AU17-AZTE Diva BWF H 2 10:45:18.30 1037.124 00:13:43 Yes
104 Master One - CA 70531-AU17-MAN BCH H 2 10:45:25.20 1036.044 00:13:50 Yes
105 Andy Skwiat - IN 0145-AU17-OAKS BCH H 15 10:45:27.80 1035.638 00:13:52 Yes
106 Hwy 51 Loft - OK 0767-AU17-HWY BCH H 1 10:45:40.50 1033.657 00:14:05 Yes
107 Utaz Team - UT 0934-AU17-PSC BB H 1 10:46:03.00 1030.167 00:14:28 Yes
108 Yandy Family Loft - FL 1250-AU17-VK BCH H 1 10:46:31.00 1025.856 00:14:56 Yes
109 Orozco's Loft - MI 0910-AU17-MEX CHPD H 3 10:46:39.60 1024.539 00:15:04 Yes
110 Malone Family Loft - IL 0085-AU17-MALO Jacks Pick BB C 1 10:46:40.80 1024.355 00:15:05 Yes
111 Flying Dragon Loft - GA 0533-AU17-GA BB H 1 10:46:50.10 1022.936 00:15:15 Yes
112 Master One - CA 0038-AU17-MAST BB H 3 10:46:50.50 1022.875 00:15:15 Yes
113 Hylek Loft - IN 0301-AU17-MICH BB C 2 10:46:56.80 1021.915 00:15:21 Yes
114 Bodzianowski Loft - IL 1600-AU17-WRC BCH C 1 10:46:57.30 1021.839 00:15:22 Yes
115 Aztec Loft - DE 0274-AU17-AZTE Lola BSP H 3 10:46:57.70 1021.778 00:15:22 Yes
116 Dos Hermano & Yosellaj Loft - FL 4403-AU17-HRPC BBCH H 2 10:46:59.60 1021.489 00:15:24 Yes
117 F T L Loft - IN 0031-AU17-HUTC BB H 3 10:47:03.30 1020.927 00:15:28 Yes
118 Malloy Flying Loft - TX 0131-AU17-MALL BB H 2 10:47:05.70 1020.563 00:15:30 Yes
119 Daehn/Miele - FL 0203-AU17-NWFI 973 X 257 BBWF H 2 10:47:13.10 1019.441 00:15:38 Yes
120 The X-Loft - IN 0011-AU17-XLOF Hollywood lights BWF H 1 10:47:22.40 1018.035 00:15:47 Yes
121 Hylek Loft - IN 0319-AU17-MICH BSP H 3 10:47:23.90 1017.809 00:15:48 Yes
122 Andy Skwiat - IN 4635-AU17-JEDD BCH C 16 10:47:40.80 1015.264 00:16:05 Yes
123 Rpm Syndicate - ON 0176-IF17-BUFF BBPD H 3 10:48:38.20 1006.717 00:17:03 Yes
124 Debbie Ganus - IN 0724-AU17-GFL DEBBIES TIME TO WIN BCH H 3 10:50:26.70 990.948 00:18:51 Yes
125 Debbie Ganus - IN 0701-AU17-GFL CHWF H 4 10:53:45.40 963.314 00:22:10 Yes
126 Van Den Bossche Brothers - ME 1004-AU17-FOYS Range Finder CHPD H 2 10:53:49.50 962.760 00:22:14 Yes
127 H & H Loft - TX 6914-AU17-VK BWF C 5 10:53:51.60 962.477 00:22:16 Yes
128 America\'s Dream Loft - IL 0068-AU17-ADL BB C 3 10:53:53.50 962.221 00:22:18 Yes
129 Ganus Family Loft - IN 0702-AU17-GFL GOLDEN DRAGON CHWF H 5 10:56:16.00 943.375 00:24:41 Yes
130 Erp -Duviel_ubaldo Team - GA 0054-AU17-ERP Chapo BCH C 2 10:56:30.10 941.551 00:24:55 Yes
131 Bodzianowski Loft - IL 0020-AU17-WOLF BB C 2 10:56:31.10 941.422 00:24:56 Yes
132 Ganus Family Loft - IN 0306-AU17-GFL BWF H 6 10:56:33.90 941.060 00:24:59 Yes
133 Andy Skwiat - IN 25477-AU17-ARPU DCH C 17 10:56:38.50 940.467 00:25:03 Yes
134 H & H Loft - TX 6924-AU17-VK BCH C 6 10:56:40.70 940.184 00:25:05 Yes
135 Aztec Loft - DE 0295-AU17-AZTE G Power GRIZ C 4 10:56:43.50 939.823 00:25:08 Yes
136 Andy Skwiat - IN 2942-AU17-APOL DCH H 18 10:57:30.30 933.839 00:25:55 Yes
137 Mesopotamia Loft - MN 0349-AU17-MESO DCH C 2 10:57:52.50 931.027 00:26:17 Missing
138 Flying Dragon Loft - GA 0529-AU17-GA BB H 2 10:57:55.10 930.699 00:26:20 Yes
139 Erp -Duviel_ubaldo Team - GA 0024-AU17-ERP Delmon dos BB C 3 10:58:27.40 926.641 00:26:52 Yes
140 Van Den Bossche Brothers - ME 0872-AU17-RRV Top Dog BB C 3 10:58:38.60 925.242 00:27:03 Yes
141 Floden Lofts - KY 5055-AU17-VK GRIZ H 2 10:59:58.20 915.420 00:28:23 Yes
142 Elton Dinga - TX 12032-AU17-AA Brother Victor x D Bailey BB H 1 11:00:00.00 915.200 00:28:25 Yes
143 F T L Loft - IN 0075-AU17-HUTC BB C 4 11:00:03.70 914.749 00:28:28 Yes
144 Daehn/Miele - FL 0019-AU17-NWFI 33 X 19 BB H 3 11:00:04.50 914.651 00:28:29 Yes
145 Floden/Graham Lofts - KY 5102-AU17-VK Caboose BB H 1 11:00:05.20 914.566 00:28:30 Yes
146 Elton Dinga - TX 12050-AU17-AA Klaas 771 x 16837 BB H 2 11:00:11.80 913.762 00:28:36 Yes
147 Max - CA 0910-AU17-MAX BSP C 3 11:00:17.70 913.045 00:28:42 Yes
148 Jim Kearney Loft - NY 4301-IF17-PERT BCH H 1 11:01:14.80 906.163 00:29:39 Yes
149 F T L Loft - IN 0033-AU17-HUTC BB C 5 11:01:14.90 906.151 00:29:39 Yes
150 Bogdan Chlebek - IL 11604-AU17-CHIC BWF C 1 11:01:23.10 905.171 00:29:48 Yes
151 Brito Loft - FL 0113-AU17-EMIL BB H 1 11:01:23.50 905.123 00:29:48 Yes
152 Andy Skwiat - IN 0034-IF17-MDL Going the distance BB C 19 11:01:23.80 905.087 00:29:48 Yes
153 Cbp Loft - IN 0008-AU17-JHWA BB C 1 11:01:24.20 905.039 00:29:49 Yes
154 Columbus & Cicio - IL 0177-AU17-CICI BCH H 1 11:01:24.50 905.004 00:29:49 Yes
155 H & H Loft - TX 6901-AU17-VK BB C 7 11:01:24.90 904.956 00:29:50 Yes
156 F T L Loft - IN 0036-AU17-HUTC BB C 6 11:01:25.40 904.896 00:29:50 Yes
157 Hmong Syndicate - MN 0334-AU17-ROYA HMONG TIME BCH H 1 11:01:26.20 904.801 00:29:51 Yes
158 Cicio\'s Loft - IL 0172-AU17-CICI BCH C 1 11:01:26.70 904.741 00:29:51 Yes
159 Debbie Ganus - IN 0349-AU17-GFL BB H 5 11:01:27.40 904.658 00:29:52 Yes
160 Van Den Bossche Brothers - ME 0552-AU17-WRC The Wizard BSP H 4 11:01:28.80 904.491 00:29:53 Yes
161 Furlano & Rotiroti - ON 3396-CU17-LAKE BWF C 1 11:01:31.50 904.169 00:29:56 Yes
162 Avalos Loft - CA 1607-AU17-TULE BCH H 2 11:01:32.70 904.026 00:29:57 Yes
163 John Fukumoto - HI 0313-AU17-HAWN BB H 1 11:01:33.10 903.979 00:29:58 Yes
164 Hawkroost Loft - OH 5001-AU17-ARPU BB H 1 11:01:51.00 901.853 00:30:16 Yes
165 Gene Tenbrink - CA 0329-AU17-GENT BCH C 1 11:01:52.20 901.710 00:30:17 Yes
166 Minnuies Family Loft - NJ 1552-IF17-BSC Right time BB C 1 11:01:53.70 901.533 00:30:18 Yes
167 Ganus Family Loft - IN 0750-AU17-GFL BB H 7 11:01:58.30 900.988 00:30:23 Yes
168 Furlano & Rotiroti - ON 3374-CU17-LAKE BB C 2 11:02:02.40 900.504 00:30:27 Yes
169 Yandy Family Loft - FL 1256-AU17-VK BCH H 2 11:02:03.60 900.362 00:30:28 Yes
170 Alca Girls - IL 61913-AU17-ARPU Mynnie BBPD H 3 11:02:06.60 900.008 00:30:31 Yes
171 A P C Loft - TX 17016-AU17-APC BB C 2 11:02:11.50 899.430 00:30:36 Yes
172 Andy Skwiat - IN 0038-AU17-ANDY BB C 20 11:02:11.80 899.395 00:30:36 Yes
173 Hylek Loft - IN 0304-AU17-MICH BB C 4 11:02:12.30 899.336 00:30:37 Yes
174 Tegan Bogoslawski - IN 0081-AU17-ANDY Wi-Fi BSP C 3 11:02:13.80 899.159 00:30:38 Yes
175 Wolfs Den - IL 0019-AU17-WOLF BB C 1 11:02:15.50 898.959 00:30:40 Yes
176 Jones Family & Gwp Macaloney - TX 7087-AU17-JFL DCH C 1 11:02:15.80 898.923 00:30:40 Yes
177 Me Fui Vega Loft - FL 0044-AU17-MEFU BB C 1 11:02:17.80 898.688 00:30:42 Yes
178 Tyler Shupe - IN 0015-AU17-TYLE BB C 1 11:02:20.30 898.394 00:30:45 Yes
179 John Fukumoto - HI 0331-AU17-HAWN BB H 2 11:02:20.80 898.335 00:30:45 Yes
180 Kowkow Family Loft - FL 0220-AU17-BFS BB H 1 11:02:25.30 897.806 00:30:50 Yes
181 K T Loft - IN 0200-AU17-KT BCH H 1 11:02:26.20 897.701 00:30:51 Yes
182 Family Tradition - MA 0510-AU17-PLY JacCap BB H 1 11:02:33.10 896.891 00:30:58 Yes
183 F T L Loft - IN 6272-AU17-VK BB H 7 11:02:34.40 896.739 00:30:59 Yes
184 A P C Loft - TX 17108-AU17-APC BCH C 3 11:02:38.70 896.236 00:31:03 Yes
185 F T L Loft - IN 13872-AU17-AA BB H 8 11:02:41.60 895.896 00:31:06 Yes
186 Ganus Family Loft - IN 0322-AU17-GFL MARGO'S PICK TO WIN BB H 8 11:02:43.60 895.663 00:31:08 Yes
187 Bodzianowski Loft - IL 1562-AU17-WRC BCH C 3 11:02:44.60 895.546 00:31:09 Yes
188 Andy Skwiat - IN 33586-AU17-ARPU Tank jr BCH C 21 11:02:45.90 895.394 00:31:11 Yes
189 Macken/Zittler - MN 0666-AU17-MACK RCH C 1 11:02:47.70 895.184 00:31:12 Yes
190 Chino & Vazquez - FL 30399-AU17-ARPU BB C 1 11:02:48.00 895.149 00:31:13 Yes
191 Dylan Loft - FL 1232-AU17-HRPC BB H 1 11:02:48.40 895.102 00:31:13 Yes
192 Aubrina & Pappy - IN 0901-AU17-VK BB H 6 11:02:49.50 894.974 00:31:14 Yes
193 Tyler Shupe - IN 0017-AU17-TYLE BWF H 2 11:02:55.70 894.251 00:31:20 Yes
194 Debbie Ganus - IN 0723-AU17-GFL MAGICAL 888888888888 BCH H 6 11:02:57.30 894.064 00:31:22 Yes
195 Andy Skwiat - IN 1705-AU17-VENN BWF H 22 11:02:59.70 893.785 00:31:24 Yes
196 Twin Loft - FL 0595-AU17-BLES BB C 4 11:03:02.90 893.413 00:31:27 Yes
197 Cicio\'s Loft - IL 0183-AU17-CICI BPD H 2 11:03:11.20 892.449 00:31:36 Yes
198 Skwiat/Braddy Syndicate - IN 0032-AU17-XLOF 100K Cock BPD C 1 11:03:30.20 890.249 00:31:55 Yes
199 Tegan Bogoslawski - IN 0077-AU17-ANDY BB C 4 11:03:31.80 890.065 00:31:56 Yes
200 Stephen Brothers - FL 0714-AU17-COM BB C 1 11:03:53.40 887.579 00:32:18 Yes

There are 323 bird records

Note: These Race Results are unofficial and subject to change until verified by the Race Committee and declared final.